Theta_e
342 343 343 345 345 348 351 354 353 363 357 354 353 353 351 353 354 355 360 368 364 366 367 360 364 363 361 365 365 362 367 351 363 356 349 354 358 357 358 360 357 362 360
342 341 342 345 345 348 352 355 357 361 359 355 355 354 353 352 353 354 357 361 362 365 365 368 364 364 358 367 363 365 355 350 359 354 349 340 347 353 356 357 356 361 361
342 340 342 343 345 347 351 358 361 362 365 366 357 356 356 354 351 352 353 357 362 366 368 369 367 368 364 361 365 363 365 353 358 364 354 347 337 341 354 356 355 360 357
343 343 341 343 344 346 350 357 361 365 366 370 362 366 354 350 349 352 351 354 365 369 366 369 370 370 361 369 364 362 364 363 354 362 355 363 358 350 342 354 356 358 359
341 342 341 343 344 346 347 352 361 365 369 369 369 360 360 352 351 351 361 367 363 366 365 368 371 369 363 370 369 369 370 362 357 354 354 363 354 361 349 344 347 355 355
339 342 345 344 344 345 345 348 360 366 369 371 370 371 369 362 353 354 349 355 354 360 368 365 371 372 372 371 368 374 376 369 366 358 360 351 350 349 352 345 351 349 352
337 341 342 344 343 343 343 345 355 362 362 364 366 367 370 372 368 360 350 359 351 353 368 373 369 368 376 373 374 379 377 373 367 372 358 357 353 354 352 351 348 347 351
337 340 342 344 345 344 345 345 348 359 359 362 367 370 371 359 357 363 352 350 353 354 377 371 366 371 372 373 377 365 370 376 374 370 373 361 359 359 357 354 353 346 349
339 339 342 343 345 346 346 346 347 354 359 360 366 369 369 368 360 366 364 354 362 357 368 370 365 368 370 372 376 364 369 371 375 369 375 369 360 363 366 366 362 352 344
338 340 341 344 345 346 347 347 347 348 355 359 360 363 364 369 368 366 364 363 365 372 369 357 368 368 369 369 378 370 372 372 369 363 373 372 365 366 363 365 362 358 353
338 342 343 344 344 346 347 347 347 348 352 357 359 361 362 365 367 360 363 364 364 370 371 371 366 365 366 368 371 372 371 367 371 371 370 367 373 363 358 356 358 355 355
340 343 344 344 344 344 346 347 349 349 353 359 369 366 365 367 363 363 361 364 369 369 370 368 370 366 368 367 366 365 366 365 366 366 365 364 362 362 363 352 361 356 356
343 344 346 347 345 345 348 350 351 347 350 350 358 362 366 372 373 371 372 371 371 368 365 366 368 367 365 363 362 361 361 362 361 361 359 357 356 355 353 355 352 348 347
345 345 348 348 350 351 352 352 349 351 350 346 349 364 362 364 365 367 368 367 366 364 363 362 361 361 360 359 358 356 354 354 354 355 354 354 353 352 352 352 352 351 348
345 346 348 350 352 352 350 348 347 345 345 348 342 346 342 348 353 357 357 357 356 354 353 352 353 354 354 352 351 347 347 348 348 350 349 348 343 341 344 340 348 348 343
344 346 346 347 346 351 351 351 355 352 343 341 340 341 337 341 338 343 339 342 341 344 347 345 346 346 342 329 330 333 335 337 340 341 342 342 340 338 338 338 337 337 340
343 341 340 340 343 349 349 346 350 351 346 342 341 338 337 334 335 338 339 339 343 344 345 343 344 342 340 327 326 326 331 336 337 340 340 338 336 339 341 337 336 334 333
340 337 338 338 341 345 347 350 349 346 345 342 340 341 339 338 337 339 340 342 342 341 340 340 340 337 335 322 321 323 332 337 338 337 340 338 339 337 334 334 333 333 335
342 342 343 340 340 339 343 344 346 343 343 342 344 344 346 342 339 340 341 342 340 340 338 338 339 337 338 320 319 320 331 330 334 335 339 338 337 326 319 330 330 331 332
347 346 346 343 341 342 344 343 341 342 339 339 338 338 338 338 337 337 336 338 338 337 335 335 337 326 336 320 317 320 326 327 327 333 332 327 329 319 317 327 326 324 326
344 345 345 344 344 346 344 338 338 337 338 337 337 338 338 337 336 336 337 336 336 336 336 335 337 336 334 331 317 316 325 325 325 324 325 328 316 313 312 312 323 325 327
339 341 341 341 343 342 340 337 335 336 336 336 335 336 335 332 333 333 334 333 333 332 332 332 331 330 337 326 321 316 317 320 324 324 326 328 314 311 311 316 317 314 315
339 339 337 337 338 339 339 335 336 338 337 336 335 334 333 330 331 330 330 326 330 326 326 324 324 326 329 330 319 316 317 318 323 326 322 318 313 312 315 315 314 314 324
337 335 336 335 335 336 337 336 337 337 336 333 332 330 329 327 329 326 326 325 325 324 324 324 323 324 325 328 329 326 325 319 322 322 321 318 315 315 317 317 323 328 329
334 331 330 334 334 335 335 335 335 334 332 329 326 327 325 326 325 327 324 320 323 316 316 318 320 320 321 321 311 312 319 318 313 309 315 315 316 317 319 322 324 326 328
334 333 332 333 333 332 333 332 331 329 326 324 322 320 322 323 323 320 322 313 311 308 306 305 309 318 307 304 303 302 302 301 301 312 314 315 317 318 319 319 320 321 321
Wind_Speed
18 18 18 17 17 16 15 15 13 11 9 10 10 9 9 8 7 8 7 3 6 5 6 8 8 7 7 7 4 3 8 7 5 10 13 7 7 7 5 13 7 11 7
18 19 20 19 18 18 17 16 15 13 12 10 9 9 9 8 8 8 7 9 9 10 5 8 6 4 5 5 2 3 7 7 4 9 3 4 7 5 11 6 2 8 4
19 20 21 21 20 20 20 17 16 15 14 13 10 8 7 6 6 7 6 9 9 10 9 7 7 3 4 2 5 4 5 7 1 5 6 5 3 6 9 6 4 4 4
18 20 21 22 22 21 20 18 17 16 15 14 11 12 9 9 9 8 8 9 12 11 8 8 8 7 8 4 5 4 5 3 6 3 5 5 5 8 3 3 6 5 4
19 21 23 23 23 21 20 20 17 16 15 15 14 10 12 9 8 6 6 7 6 8 10 9 9 8 7 5 3 5 5 3 5 6 3 6 7 3 5 2 7 8 7
19 21 22 22 21 21 20 20 19 16 17 15 17 14 11 12 9 8 7 9 10 11 11 9 9 8 8 7 3 6 7 7 4 6 4 6 6 4 6 5 4 6 3
9 18 20 22 22 22 22 20 19 18 18 18 16 16 14 12 11 6 9 10 10 9 14 9 6 8 9 8 5 5 6 8 8 7 8 6 6 6 6 7 7 7 3
5 10 20 20 21 23 23 22 21 18 18 17 17 14 15 12 12 11 10 10 11 7 13 8 7 8 6 8 7 6 6 8 8 9 8 9 7 5 5 6 5 7 7
4 5 9 17 20 22 22 22 20 18 17 18 14 15 14 15 13 11 12 10 11 7 8 11 10 9 7 8 6 7 7 6 7 8 7 6 8 4 3 2 5 6 8
3 5 6 9 15 19 20 21 20 18 17 17 16 15 15 14 12 10 10 11 10 8 7 8 10 5 5 7 6 7 8 7 7 8 6 5 8 8 4 3 3 4 5
3 3 5 8 11 15 17 19 18 17 14 16 17 16 16 15 13 12 10 9 10 6 6 8 3 3 5 6 6 7 9 5 7 7 6 6 4 6 6 7 3 5 5
4 5 2 7 11 12 12 15 15 12 11 13 11 13 13 14 14 12 12 12 10 10 7 9 6 6 4 3 3 7 7 6 6 8 6 8 5 4 5 7 5 5 7
4 4 3 3 3 7 9 7 8 7 5 13 10 11 10 10 10 10 10 10 10 9 11 9 9 9 7 6 4 2 1 4 5 5 5 6 7 7 6 7 7 7 5
6 6 7 5 8 9 5 6 4 5 10 15 17 6 5 3 5 7 9 10 9 9 8 5 3 4 4 4 5 5 4 2 5 5 6 6 6 7 6 5 7 7 7
8 8 8 6 6 6 5 3 3 8 9 9 12 10 16 13 10 6 3 3 1 3 3 2 4 5 5 2 4 5 3 4 7 7 7 8 5 2 5 7 6 7 7
9 9 7 7 6 4 7 8 11 12 16 13 11 13 13 10 8 11 10 11 10 7 2 1 3 1 3 6 7 4 3 3 5 8 8 8 9 11 9 13 7 6 8
8 7 8 8 7 7 11 13 13 13 14 13 9 6 4 10 5 7 3 2 9 4 3 3 4 2 5 6 7 5 5 1 2 7 8 8 7 8 8 3 9 12 15
8 7 8 8 8 10 13 12 14 13 11 9 6 6 4 7 7 7 7 7 7 5 4 5 6 3 2 5 5 5 6 4 6 5 8 8 8 5 5 7 10 10 10
10 9 11 11 10 11 10 11 13 10 9 8 8 7 6 7 6 7 7 5 5 3 5 5 6 5 3 4 4 6 5 3 6 6 4 7 7 5 3 7 10 11 12
14 14 16 13 13 10 10 10 10 8 9 9 9 11 9 8 7 6 4 1 4 5 6 5 6 3 1 7 2 6 5 5 6 7 8 7 5 7 4 6 9 11 11
12 12 14 13 13 13 10 10 10 9 9 9 8 10 9 8 6 4 3 2 3 3 5 5 4 4 4 6 6 1 7 7 6 6 6 0 8 4 6 5 8 11 12
13 13 13 13 12 11 11 12 11 9 8 8 7 9 7 5 5 2 1 3 2 6 5 4 5 6 6 6 10 8 3 5 7 8 8 10 17 14 13 10 12 8 7
11 12 12 12 11 10 10 11 8 7 6 6 6 5 4 3 2 3 3 5 3 3 4 5 5 3 2 3 8 4 4 7 6 8 10 13 15 17 15 19 18 13 10
11 12 12 12 12 10 10 10 7 6 4 4 3 3 2 4 3 5 1 3 3 4 4 4 4 4 3 5 1 3 4 7 8 5 9 13 17 21 20 16 12 12 12
9 7 11 4 10 9 9 9 7 4 3 2 2 2 3 2 1 3 3 4 6 4 6 6 7 6 6 6 4 4 6 7 8 11 11 11 10 10 10 9 10 12 12
12 13 12 11 9 8 5 6 5 4 4 4 4 3 3 1 1 4 1 4 2 10 10 7 5 5 8 6 4 2 6 10 6 9 11 11 9 10 6 8 8 10 13
Wind_Direction
191 190 192 190 187 181 185 185 193 186 191 197 196 212 213 215 226 229 224 183 223 229 201 265 178 206 267 128 313 281 229 275 242 271 2 190 148 202 163 183 203 132 191
197 189 187 193 191 185 185 188 193 185 202 200 211 211 216 219 217 218 205 206 232 250 263 268 291 220 100 166 201 288 300 258 295 295 269 102 261 192 166 179 182 151 196
199 188 189 194 192 191 189 188 195 190 198 223 205 214 245 246 221 234 225 205 223 245 226 265 267 331 299 143 178 209 269 308 227 319 314 333 81 200 312 120 235 110 223
201 190 193 195 199 197 190 193 193 200 196 208 225 211 213 225 218 224 216 223 196 212 235 226 231 236 262 110 142 202 293 305 296 228 271 333 348 357 82 304 162 181 239
198 203 192 196 202 197 196 192 191 199 213 195 226 208 227 223 235 225 221 210 177 205 241 212 218 223 232 227 187 147 222 222 277 302 210 2 315 139 315 324 200 181 195
192 203 196 194 202 198 199 195 186 195 199 209 199 234 211 233 242 200 213 208 218 191 208 214 201 224 239 238 220 208 226 257 277 287 321 273 276 272 237 256 247 248 266
230 191 204 196 194 202 197 200 183 190 202 206 209 206 225 208 239 204 223 243 228 206 160 186 204 215 218 254 242 192 239 242 246 225 264 274 246 244 278 299 296 297 278
221 217 196 204 197 200 202 200 188 186 194 207 207 202 212 218 217 194 235 222 257 233 138 170 206 197 244 219 219 250 255 232 236 250 246 288 294 260 232 259 291 295 281
230 234 225 196 203 198 206 206 202 187 191 203 199 202 202 218 208 213 198 235 240 260 169 192 184 196 222 228 260 242 241 245 216 245 241 252 271 284 266 265 262 281 291
210 183 225 223 202 202 201 208 201 196 192 205 201 198 198 204 222 206 208 214 227 246 272 71 237 171 257 246 242 258 216 225 231 237 239 220 277 313 276 267 28 9 314
182 147 212 194 231 202 194 209 206 197 184 207 198 196 194 193 209 199 205 222 231 239 238 292 304 246 233 246 258 293 286 282 260 264 275 276 254 274 307 318 302 258 251
101 95 291 246 194 215 186 191 200 199 169 185 224 198 193 185 193 203 201 205 212 215 216 228 227 224 245 231 266 268 291 281 278 280 288 277 288 296 283 275 272 294 314
147 176 105 360 177 127 108 101 116 38 74 71 277 206 193 186 179 188 207 206 203 200 211 203 204 193 185 192 180 151 280 291 302 309 315 303 294 287 290 305 305 276 270
157 134 99 107 88 89 106 119 133 116 63 7 286 149 166 157 181 189 188 198 204 209 208 197 168 166 167 171 176 146 142 273 286 281 281 286 286 278 277 274 272 262 261
167 146 139 127 148 175 164 144 138 137 99 101 47 68 46 30 22 336 351 296 220 200 188 165 157 154 160 114 60 4 36 20 325 306 305 286 24 188 266 283 294 328 288
154 122 126 121 121 163 162 134 97 105 105 121 117 95 83 41 33 18 14 13 11 357 349 39 317 9 47 80 78 347 304 34 302 301 304 306 293 267 221 222 244 293 272
118 143 138 123 127 140 110 104 116 109 103 96 75 67 153 136 127 76 339 352 267 260 244 237 221 205 88 50 43 9 296 291 318 300 303 296 309 343 324 204 227 238 233
116 139 124 116 120 118 119 127 124 117 112 122 120 120 106 110 121 189 210 222 237 238 261 259 263 265 83 77 54 325 266 23 323 356 312 310 311 346 327 318 302 301 303
155 146 138 124 121 119 114 122 133 127 132 126 111 93 120 127 165 176 177 202 240 236 244 258 258 260 126 81 29 322 336 276 283 258 262 288 295 98 60 309 313 311 304
154 151 130 129 129 138 146 142 129 120 121 114 112 106 95 89 88 111 137 182 236 222 245 236 266 18 280 137 53 348 301 296 301 336 306 298 323 116 65 332 318 306 301
148 144 140 129 135 145 139 124 113 104 98 90 82 84 86 102 93 91 54 340 275 324 250 250 250 251 228 136 136 242 295 319 322 307 298 101 94 181 232 232 301 286 297
142 150 124 129 124 121 121 109 105 103 99 94 95 83 72 31 65 46 105 270 264 253 240 250 262 220 170 192 166 183 253 321 305 304 303 320 347 334 315 299 284 275 283
147 123 121 116 110 110 111 109 106 108 102 89 74 65 65 47 53 335 345 283 211 281 284 315 304 307 278 217 134 177 234 241 292 330 333 308 302 289 283 261 262 260 266
132 115 124 128 121 117 107 106 113 106 94 93 72 59 36 339 8 301 308 302 317 324 311 301 293 295 287 97 121 321 317 251 259 357 307 301 279 262 257 270 270 264 253
97 87 96 179 111 106 120 114 109 112 119 120 136 197 192 220 245 215 15 344 72 11 329 327 334 320 314 63 48 4 337 337 339 321 296 294 293 294 294 308 335 330 322
133 134 125 138 119 105 111 100 124 155 169 180 184 49 311 290 7 312 262 180 147 176 199 225 259 330 81 84 32 331 271 274 274 287 292 288 288 299 323 308 304 312 314